Location: Piolenc
(44.1794°N, 4.7641°E)
Time: 04:03:16
(UTC+00:00)

STARLINK-2071 - Pass Details

Date: 27 January 2021
Orbit: 379 x 380 km, 53.1° (Epoch: 27 February)

Event Time Altitude Azimuth Distance (km) Brightness Sun altitude
Exits shadow 04:22:19 - 132° (SE) 1,527 6.4 -29.0°
Enters shadow 05:23:48 -63° 233° (SW) 11,817 10.3 -18.0°
Maximum altitude 05:57:56 72° 144° (SE) 408 3.1 -12.0°
